Weather in Hildesheim

Germany     52°09′26″N   9°57′23″E
temp.,
°C
wind,
m/s
gust,
m/s
humid.,
%
clouds,
%
prec.,
mm/h
press.,
hPa
HPBL,
m
20 september, mon
mon2023:00+9ese33776 0.0 101944
02:00+8ese228226 0.0 101915
05:00+9ene237479 0.0 102078
08:00+9e267463 0.0 1021178
11:00+13e465497 0.0 10221479
14:00+14ene4450100 0.0 10221573
17:00+14ne445276 0.0 10221494
20:00+11ene345970 0.0 102471
21 september, tue
tue2123:00+10e116346 0.0 102511
02:00+10sw116476 0.0 102617
05:00+10wsw1163100 0.0 102623
08:00+10wnw1168100 0.0 102840
11:00+13ene1265100 0.0 1029515
14:00+16nnw3347100 0.0 10281530
17:00+15nnw3452100 0.0 10281321
20:00+11nnw2268100 0.0 103023
22 september, wed
wed2223:00+10wnw1174100 0.0 103010
02:00+9w2281100 0.0 103021
05:00+8w2383100 0.0 102942
08:00+8wsw248495 0.0 1029115
11:00+13wnw356618 0.0 1028573
14:00+17wnw455568 0.0 1027929
17:00+18wnw455267 0.0 10251001
20:00+13w22725 0.0 102418
23 september, thu
thu2323:00+11sw33800 0.0 102325
02:00+10sw34830 0.0 102156
05:00+9ssw388678 0.0 1019141
08:00+10sw5138094 0.0 1018320
11:00+15wsw71464100 0.0 1016697
14:00+17w81365100 0.0 10141134
17:00+16w81472100 0.0 10121275
20:00+14w71384100 0.1 10121070
24 september, fri
fri2423:00+13w71383100 0.1 1012938
02:00+13wsw8158886 0.1 1010675
05:00+13w7158798 0.0 1010711
08:00+13wsw71482100 0.0 1010807
11:00+15wsw71376100 0.0 1010918
14:00+16w8147499 0.0 10091208
17:00+18wsw81471100 0.0 10081423
20:00+17wsw7147250 0.1 10091021